Stations météo

Publicité
Dunkerque, France (7010): Température de l'air & dewpoint: 18.01.2021 07:00:00 - 24.01.2021 07:00:00 (CET)Dunkerque, France (7010): Vitesse du vent & gusts: 18.01.2021 07:00:00 - 24.01.2021 07:00:00 (CET)Dunkerque, France (7010): Direction du vent: 18.01.2021 07:00:00 - 24.01.2021 07:00:00 (CET)Dunkerque, France (7010): reduced air pressure: 18.01.2021 07:00:00 - 24.01.2021 07:00:00 (CET)Dunkerque, France (7010): visibility: 18.01.2021 07:00:00 - 24.01.2021 07:00:00 (CET)Dunkerque, France (7010): Quantités de précipitations: 18.01.2021 07:00:00 - 24.01.2021 07:00:00 (CET)
Date & Time tt [°C] td [°C] ff [km/h] ff [knt] fx [km/h] fx [knt] dd ppp [hPa] vv [km] rr [mm]
24.01.2021 07:00:00 3,4 -0,6 20 11 31 17 W 999,7 15 0,0
24.01.2021 06:00:00 3,4 -0,4 23 12 35 19 WNW 999,9 10 0,0
24.01.2021 05:00:00 3,3 -1,1 28 15 41 22 WNW 999,8 10 0,0
24.01.2021 04:00:00 3,3 -0,9 28 15 42 23 WNW 999,5 - 0,0
24.01.2021 03:00:00 3,8 0,5 27 14 43 23 WNW 998,6 - 0,0
24.01.2021 02:00:00 4,1 -0,7 26 14 44 24 NW 998,3 - 0,0
24.01.2021 01:00:00 3,6 -0,1 31 17 46 25 NW 997,8 - 0,0
24.01.2021 00:00:00 3,6 1,0 31 17 48 26 NW 997,1 - 0,0
23.01.2021 23:00:00 4,4 0,2 32 18 50 27 WNW 996,6 - 0,0
23.01.2021 22:00:00 4,2 0,3 27 14 46 25 NW 996,4 - 0,0
23.01.2021 21:00:00 4,1 -0,3 29 16 52 28 WNW 996,2 10 0,0
23.01.2021 20:00:00 4,4 0,0 29 16 43 23 NW 995,7 10 0,0
23.01.2021 19:00:00 3,9 0,9 24 13 36 19 NW 995,5 10 0,0
23.01.2021 18:00:00 4,3 1,0 22 12 33 18 NW 995,2 10 0,0
23.01.2021 17:00:00 4,9 1,0 16 8 26 14 NNW 994,5 10 0,0
23.01.2021 16:00:00 5,1 0,8 13 7 18 10 NNW 993,9 10 0,0
23.01.2021 15:00:00 4,8 3,0 0 0 4 2 N 993,8 10 0,0
23.01.2021 14:00:00 4,7 3,2 4 2 11 6 SE 993,8 10 0,0
23.01.2021 13:00:00 5,2 3,0 5 3 8 5 E 994,1 10 0,0
23.01.2021 12:00:00 4,5 3,2 0 0 4 2 N 994,2 8 0,0
23.01.2021 11:00:00 3,5 2,8 3 2 8 5 S 994,4 6 0,0
23.01.2021 10:00:00 2,7 2,1 6 4 10 5 S 994,6 10 0,0
23.01.2021 09:00:00 2,6 1,7 6 4 15 8 S 994,7 10 0,0
23.01.2021 08:00:00 2,7 1,4 13 7 21 11 S 994,7 10 0,0
23.01.2021 07:00:00 3,0 1,5 12 6 19 10 SSW 994,6 10 0,0
23.01.2021 06:00:00 4,6 1,1 12 7 29 15 SSW 994,2 10 0,0
23.01.2021 05:00:00 5,5 2,0 16 8 37 20 WSW 994,2 10 0,0
23.01.2021 04:00:00 4,1 2,8 16 8 26 14 SSW 994,6 - 0,0
23.01.2021 03:00:00 4,2 2,7 21 11 32 17 SSW 994,6 - 0,0
23.01.2021 02:00:00 4,0 2,7 21 12 36 19 SSW 994,8 - 0,0
23.01.2021 01:00:00 3,9 2,9 20 11 32 18 SSW 995,4 20 0,4
23.01.2021 00:00:00 3,6 2,6 14 7 40 22 S 995,4 - 0,4
22.01.2021 23:00:00 5,0 2,9 23 13 40 21 SSW 995,4 - 0,0
22.01.2021 22:00:00 4,5 3,0 13 7 22 12 S 995,4 20 0,0
22.01.2021 21:00:00 4,2 2,5 13 7 19 10 S 995,8 10 0,0
22.01.2021 20:00:00 4,0 1,9 9 5 16 8 S 995,8 10 0,0
22.01.2021 19:00:00 4,8 2,0 13 7 20 11 S 995,7 10 0,0
22.01.2021 18:00:00 5,7 2,0 16 8 25 13 SSW 995,4 10 0,0
22.01.2021 17:00:00 6,2 1,9 13 7 22 12 SW 995,3 10 0,0
22.01.2021 16:00:00 6,7 2,0 16 9 26 14 SSW 995,2 10 0,0
22.01.2021 15:00:00 7,1 2,2 16 9 27 15 SSW 994,8 10 0,0
22.01.2021 14:00:00 7,1 3,3 17 9 25 14 W 994,7 10 0,0
22.01.2021 13:00:00 6,8 3,0 13 7 21 12 W 994,6 10 0,0
22.01.2021 12:00:00 6,6 3,0 8 4 18 10 SW 994,3 10 0,0
22.01.2021 11:00:00 4,5 2,2 14 8 28 15 S 993,9 10 0,0
22.01.2021 10:00:00 6,0 2,6 19 10 32 17 W 992,7 15 0,0
22.01.2021 09:00:00 5,1 2,6 17 9 26 14 W 991,9 10 0,0
22.01.2021 08:00:00 5,1 2,8 8 4 27 15 SW 991,3 10 0,0
22.01.2021 07:00:00 5,9 2,5 21 12 32 17 W 990,6 15 0,0
22.01.2021 06:00:00 6,0 2,3 20 11 35 19 W 990,0 10 0,0
22.01.2021 05:00:00 6,2 2,6 24 13 39 21 W 989,7 10 0,0
22.01.2021 04:00:00 6,3 3,1 16 8 36 20 WSW 989,2 - 0,0
22.01.2021 03:00:00 6,4 3,9 22 12 42 23 W 988,5 - 0,0
22.01.2021 02:00:00 6,1 3,6 14 7 28 15 SW 988,0 - 0,0
22.01.2021 01:00:00 6,0 3,7 15 8 29 16 SW 987,0 - 0,0
22.01.2021 00:00:00 5,7 3,5 22 12 36 19 W 986,3 - 0,0
21.01.2021 23:00:00 5,0 3,5 13 7 29 16 WNW 985,8 - 0,0
21.01.2021 22:00:00 5,0 3,2 18 10 36 19 NNW 984,8 - 0,8
21.01.2021 21:00:00 5,1 3,4 15 8 21 11 NW 984,2 10 0,8
21.01.2021 20:00:00 5,2 4,0 6 3 14 8 NNE 984,3 10 2,9
21.01.2021 19:00:00 5,6 4,4 6 4 21 11 S 985,5 6 3,0
21.01.2021 18:00:00 5,9 4,5 13 7 48 26 S 987,3 9 0,8
21.01.2021 17:00:00 7,2 4,0 27 15 45 25 SSW 988,4 10 0,0
21.01.2021 16:00:00 8,0 3,6 24 13 46 25 SSW 989,2 10 0,0
21.01.2021 15:00:00 8,1 3,9 29 16 54 29 SSW 989,8 10 0,0
21.01.2021 14:00:00 7,0 5,1 21 12 47 26 SW 990,3 10 1,2
21.01.2021 13:00:00 6,7 3,8 31 17 55 30 SW 990,6 20 0,4
21.01.2021 12:00:00 6,7 4,5 31 17 62 34 SSW 990,7 10 0,0
21.01.2021 11:00:00 7,3 3,0 32 17 59 32 SW 990,6 10 0,0
21.01.2021 10:00:00 6,9 3,9 33 18 53 29 SSW 990,6 20 0,0
21.01.2021 09:00:00 6,9 3,3 22 12 36 19 SSW 989,8 10 0,2
21.01.2021 08:00:00 6,6 1,9 22 12 50 27 SSW 989,4 10 0,0
21.01.2021 07:00:00 7,5 1,6 22 12 50 27 WSW 988,6 20 0,0
21.01.2021 06:00:00 7,2 1,5 27 15 74 40 WSW 987,9 10 0,0
21.01.2021 05:00:00 7,0 2,3 29 16 69 38 WSW 986,5 10 0,0
21.01.2021 04:00:00 7,9 3,0 36 20 80 43 WSW 984,3 - 0,0
21.01.2021 03:00:00 8,7 4,9 36 19 117 63 WSW 982,5 - 1,6
21.01.2021 02:00:00 10,3 7,5 51 27 80 43 S 979,3 - 0,0
21.01.2021 01:00:00 10,6 6,5 49 26 79 43 S 980,5 15 0,0
21.01.2021 00:00:00 9,9 6,1 45 25 74 40 S 982,1 - 0,0
20.01.2021 23:00:00 10,3 4,9 37 20 62 33 S 983,8 - 0,0
20.01.2021 22:00:00 9,9 4,5 34 18 59 32 S 985,8 - 0,0
20.01.2021 21:00:00 9,9 4,3 35 19 57 31 S 987,3 10 0,0
20.01.2021 20:00:00 10,0 4,1 34 18 55 30 S 988,5 10 0,0
20.01.2021 19:00:00 10,0 4,1 34 18 51 28 S 989,5 10 0,0
20.01.2021 18:00:00 9,6 4,0 34 18 51 28 S 989,9 10 0,0
20.01.2021 17:00:00 9,5 3,9 32 17 56 30 S 990,3 10 0,0
20.01.2021 16:00:00 9,6 4,2 32 17 55 30 S 991,1 10 0,0
20.01.2021 15:00:00 9,6 4,2 32 17 58 32 S 991,9 10 0,0
20.01.2021 14:00:00 9,0 4,6 31 17 57 31 S 992,9 10 0,0
20.01.2021 13:00:00 9,0 5,4 32 17 56 30 S 993,8 15 0,0
20.01.2021 12:00:00 8,8 5,5 31 17 51 27 S 994,8 10 0,0
20.01.2021 11:00:00 8,4 5,7 35 19 56 31 SSW 995,8 10 0,0
20.01.2021 10:00:00 8,1 5,6 29 16 45 24 S 996,3 10 0,0
20.01.2021 09:00:00 8,3 5,9 30 16 49 26 S 996,8 10 0,0
20.01.2021 08:00:00 8,8 6,2 29 16 45 24 S 997,0 10 0,0
20.01.2021 07:00:00 8,7 6,8 26 14 41 22 S 997,4 15 0,0
20.01.2021 06:00:00 8,5 7,3 26 14 43 23 SSW 998,0 10 0,0
20.01.2021 05:00:00 8,1 6,6 29 16 44 24 S 998,5 10 0,0
20.01.2021 04:00:00 8,5 6,8 30 16 54 29 SSW 999,1 - 0,0
20.01.2021 03:00:00 8,7 6,7 30 16 56 30 SSW 999,6 - 0,0
20.01.2021 02:00:00 8,6 6,9 25 14 51 27 SSW 1000,4 - 0,0
20.01.2021 01:00:00 8,4 6,5 29 16 53 29 SSW 1001,0 - 0,0
20.01.2021 00:00:00 8,8 6,2 30 16 54 29 SSW 1001,9 - 0,0
19.01.2021 23:00:00 8,5 5,4 34 19 52 28 SSW 1002,1 - 0,0
19.01.2021 22:00:00 8,5 5,8 33 18 53 29 SSW 1003,2 - 0,0
19.01.2021 21:00:00 9,0 6,1 29 16 49 26 SSW 1003,9 10 0,0
19.01.2021 20:00:00 9,4 6,3 28 15 45 25 SSW 1004,5 10 0,0
19.01.2021 19:00:00 9,1 6,7 24 13 55 30 SSW 1005,3 10 0,0
19.01.2021 18:00:00 9,1 6,7 32 18 53 28 SW 1005,8 10 0,0
19.01.2021 17:00:00 9,2 7,3 29 16 67 36 SW 1006,5 6 0,0
19.01.2021 16:00:00 10,1 7,3 30 16 58 31 SW 1006,6 10 0,0
19.01.2021 15:00:00 10,3 8,4 29 16 71 39 SW 1006,9 10 0,0
19.01.2021 14:00:00 10,2 9,0 30 16 71 38 SW 1007,4 7 0,0
19.01.2021 13:00:00 10,5 9,4 32 17 68 37 SW 1007,9 2,0 0,0
19.01.2021 12:00:00 10,6 9,5 30 16 66 36 WSW 1008,0 2,7 0,0
19.01.2021 11:00:00 10,6 9,7 32 18 71 39 WSW 1007,7 2,5 0,0
19.01.2021 10:00:00 10,7 9,5 30 16 74 40 WSW 1007,2 3,2 0,0
19.01.2021 09:00:00 10,6 9,4 34 18 75 40 WSW 1007,0 4,9 0,0
19.01.2021 08:00:00 9,8 8,6 31 17 67 36 SW 1007,2 4,5 0,8
19.01.2021 07:00:00 8,7 7,6 32 17 59 32 SW 1007,6 4,8 0,4
19.01.2021 06:00:00 7,7 6,8 31 17 56 30 SSW 1008,8 4,8 1,4
19.01.2021 05:00:00 7,3 6,2 34 19 65 35 SSW 1009,4 5 0,4
19.01.2021 04:00:00 7,4 6,2 37 20 57 31 SSW 1010,7 - 0,0
19.01.2021 03:00:00 6,7 5,6 27 14 52 28 SSW 1012,4 - 0,0
19.01.2021 02:00:00 6,4 5,2 27 14 40 22 SSW 1013,9 - 0,0
19.01.2021 01:00:00 6,0 4,2 22 12 39 21 SSW 1015,4 20 0,0
19.01.2021 00:00:00 6,0 3,5 27 15 39 21 S 1016,3 - 0,0
18.01.2021 23:00:00 5,9 3,6 23 12 39 21 SSW 1017,3 - 0,0
18.01.2021 22:00:00 6,7 4,0 20 11 38 21 SSW 1018,4 20 0,0
18.01.2021 21:00:00 6,4 5,0 15 8 23 12 S 1019,2 10 0,0
18.01.2021 20:00:00 6,3 4,5 15 8 22 12 SSW 1020,0 10 0,0
18.01.2021 19:00:00 6,7 4,2 13 7 23 13 SSW 1020,6 20 0,0
18.01.2021 18:00:00 7,7 4,1 14 8 41 22 SSW 1020,9 10 0,0
18.01.2021 17:00:00 7,6 3,8 13 7 39 21 SW 1021,1 10 0,0
18.01.2021 16:00:00 7,7 3,9 26 14 45 24 W 1021,4 10 0,0
18.01.2021 15:00:00 8,1 3,5 18 10 45 24 WSW 1021,4 10 0,0
18.01.2021 14:00:00 7,8 4,0 18 10 42 23 W 1022,2 10 0,0
18.01.2021 13:00:00 8,0 4,6 15 8 31 17 SW 1023,0 10 0,0
18.01.2021 12:00:00 7,0 4,3 18 10 40 22 SSW 1023,7 10 0,0
18.01.2021 11:00:00 6,7 4,2 27 15 41 22 W 1024,0 10 0,0
18.01.2021 10:00:00 6,1 4,3 12 6 21 11 SW 1024,1 10 0,0
18.01.2021 09:00:00 4,4 3,1 12 7 22 12 SSW 1024,3 10 0,0
18.01.2021 08:00:00 4,7 2,6 13 7 25 13 SSW 1024,3 10 0,0
18.01.2021 07:00:00 6,0 3,2 12 7 24 13 SW 1024,2 15 0,0

tt = Température de l'air
td = dewpoint
ff = Vitesse du vent
fx = gusts
dd = Direction du vent
ppp = reduced air pressure
vv = visibility
rr = Quantités de précipitations

stations d'obs. à proximité